Вернуться в каталог

CZ-6A DEB

АктивенSSO
NORAD 54439·DEBRIS·🇨🇳 China

Запущен Nov 11, 2022 с Taiyuan Satellite Launch Center

Loading…

Ближайшие Пролёты (ближайшие 24 часа)

TLE

СвежийSource: Space-Track

Эпоха: Sep 14, 2026, 07:19 UTC

1 54439U 22151FP  26257.30555526 -.00000170  00000-0 -11062-3 0  9992
2 54439  99.0376 202.6490 0201554 302.9677  55.2239 13.77040634192648

Отслеживайте CZ-6A DEB в реальном времени с AllMySat

Download on the App Store